Location: Landeleau
(48.2273°N, 3.7285°W)
Time: 09:26:57
(UTC+00:00)

MetOp-B - Pass Details

Date: 30 March 2020
Orbit: 818 x 822 km, 98.7° (Epoch: 24 May)

Event Time Altitude Azimuth Distance (km) Brightness Sun altitude
Exits shadow 20:40:17 35° 132° (SE) 1,300 4.6 -19.2°
Maximum altitude 20:42:23 59° 70° (ENE) 948 4.2 -19.5°
Drops below altitude 10° 20:47:40 10° 352° (N) 2,432 7.1 -20.3°
Sets 20:50:03 0° 349° (N) 3,369 8.0 -20.6°
